Погода в Голицыне

Россия / Пензенская область     53°37′24″N   44°06′55″E
темп.,
°C
ветер,
м/с
пор.,
м/с
влажн.,
%
обл.,
%
осадки,
мм/ч
давл.,
гПа
погр.,
м
10 апреля, сб
сб1000:00+2св238066 0.0 102739
03:00+1св3784100 0.0 1027168
06:00+1св41086100 0.0 1028279
09:00+4св61076100 0.0 1027574
12:00+2ссв5996100 1.5 1027368
15:00+2ссв61196100 1.9 1026426
18:00+2ссв4996100 0.0 1026382
21:00+2с489898 0.1 1025271
11 апреля, вс
вс1100:00+2с489895 0.0 1026251
03:00+2с51098100 0.0 1026315
06:00+2ссв51096100 0.0 1028373
09:00+4ссв6993100 0.0 1029402
12:00+7ссв6983100 0.0 1029496
15:00+6св51090100 1.0 1029454
18:00+5св61194100 1.2 1030411
21:00+5св51096100 1.4 1031282
12 апреля, пн
пн1200:00+5всв61493100 0.0 1029276
03:00+5св5109598 0.0 1030215
06:00+5всв61195100 0.0 1030238
09:00+10в597982 0.0 1030329
12:00+16вюв685466 0.0 1029633
15:00+19юв684257 0.0 10291140
18:00+16юв485993 0.0 1029157
21:00+12юв4107640 0.0 1030160
13 апреля, вт
вт1300:00+10юв4118134 0.0 1030176
03:00+8юв49775 0.0 1030121
06:00+6юв497649 0.0 1030139
09:00+12юв595537 0.0 1029360
12:00+16ююв674082 0.0 1028810
15:00+18ююв563512 0.0 10271325
18:00+15юв484857 0.0 1026156
21:00+11юв410613 0.0 1027153
14 апреля, ср
ср1400:00+9юв47664 0.0 1027102
03:00+8юв45670 0.0 102764
06:00+7юв477297 0.0 1026106
09:00+13юв5855100 0.0 1026330
12:00+17юв574065 0.0 1024993
15:00+19ююв56346 0.0 10231435
18:00+16юв47476 0.0 1022150
21:00+12юв475935 0.0 1022105